RYR9RX EPGD-EGNM

Flight info

Callsign RYR9RX
Flight time N/A
Altitude 38000
Route DEXIR T671 AGODU DCT BINKA L23 LEGSA DCT BERIM DCT MIMVA DCT OTBED Y70 GOLES
Aircraft B738/M-SDE2E3FGHIRWXY/LB1

Departure

Time 2026-05-04 09:14
Airport Gdańsk Lech Wałęsa Airport (EPGD)

Arrival

Time N/A
Airport Leeds Bradford Airport (EGNM)
Time Latitude Longitude Altitude Speed Heading
2026-05-04 09:10 54.37701 18.47576 460 ft 23 kts 114°
2026-05-04 09:11 54.37638 18.47822 467 ft 22 kts 113°
2026-05-04 09:11 54.37578 18.48065 472 ft 22 kts 112°
2026-05-04 09:11 54.37520 18.48299 474 ft 21 kts 113°
2026-05-04 09:11 54.37464 18.48527 485 ft 20 kts 113°
2026-05-04 09:12 54.37409 18.48749 488 ft 21 kts 113°
2026-05-04 09:12 54.37347 18.48998 493 ft 24 kts 113°
2026-05-04 09:14 54.37271 18.48588 490 ft 79 kts 293°
2026-05-04 09:14 54.37599 18.47271 463 ft 158 kts 291°
2026-05-04 09:14 54.38068 18.45344 989 ft 184 kts 291°
2026-05-04 09:14 54.38582 18.43194 1754 ft 204 kts 289°
2026-05-04 09:15 54.39108 18.40954 2744 ft 203 kts 289°
2026-05-04 09:15 54.39656 18.38772 3603 ft 198 kts 289°
2026-05-04 09:15 54.40121 18.36541 4290 ft 197 kts 270°
2026-05-04 09:15 54.39856 18.34264 4917 ft 201 kts 251°
2026-05-04 09:17 54.35790 18.13310 10357 ft 261 kts 251°
2026-05-04 09:18 54.35188 18.10193 10561 ft 288 kts 251°
2026-05-04 09:18 54.34757 18.07966 10762 ft 302 kts 251°
2026-05-04 09:18 54.34087 18.04500 11401 ft 311 kts 251°
2026-05-04 09:18 54.33175 17.99785 12473 ft 316 kts 251°
2026-05-04 09:19 54.32705 17.97358 13019 ft 319 kts 251°
2026-05-04 09:19 54.32001 17.93729 13793 ft 323 kts 251°
2026-05-04 09:19 54.31286 17.90052 14534 ft 326 kts 251°
2026-05-04 09:19 54.30565 17.86350 15282 ft 329 kts 251°
2026-05-04 09:20 54.29846 17.82663 16018 ft 332 kts 251°
2026-05-04 09:20 54.29108 17.78894 16730 ft 336 kts 251°
2026-05-04 09:20 54.28360 17.75076 17441 ft 339 kts 251°
2026-05-04 09:20 54.27605 17.71227 18144 ft 342 kts 251°
2026-05-04 09:21 54.26840 17.67339 18786 ft 345 kts 251°
2026-05-04 09:21 54.26075 17.63455 19387 ft 348 kts 251°
2026-05-04 09:21 54.25294 17.59498 19991 ft 352 kts 251°
2026-05-04 09:21 54.24508 17.55518 20587 ft 354 kts 251°
2026-05-04 09:22 54.23714 17.51509 21173 ft 357 kts 251°
2026-05-04 09:22 54.22909 17.47460 21752 ft 360 kts 251°
2026-05-04 09:22 54.22027 17.43481 22299 ft 364 kts 246°
2026-05-04 09:22 54.20911 17.39577 22858 ft 367 kts 244°
2026-05-04 09:23 54.19754 17.35655 23405 ft 371 kts 244°
2026-05-04 09:23 54.18586 17.31707 23877 ft 373 kts 244°
2026-05-04 09:23 54.17415 17.27736 24348 ft 375 kts 244°
2026-05-04 09:23 54.16238 17.23730 24806 ft 378 kts 244°
2026-05-04 09:25 54.08536 16.94592 27717 ft 395 kts 254°
2026-05-04 09:25 54.07797 16.90066 28095 ft 398 kts 254°
2026-05-04 09:26 54.07058 16.85562 28471 ft 400 kts 254°
2026-05-04 09:26 54.06300 16.80985 28837 ft 402 kts 253°
2026-05-04 09:26 54.05530 16.76378 29182 ft 405 kts 253°
2026-05-04 09:26 54.04753 16.71762 29519 ft 407 kts 253°
2026-05-04 09:27 54.03964 16.67102 29854 ft 410 kts 253°
2026-05-04 09:27 54.03169 16.62423 30171 ft 411 kts 253°
2026-05-04 09:27 54.02374 16.57753 30605 ft 409 kts 253°
2026-05-04 09:27 54.01593 16.53182 31110 ft 405 kts 253°
2026-05-04 09:28 54.00809 16.48603 31579 ft 403 kts 253°
2026-05-04 09:28 54.00023 16.44030 31972 ft 401 kts 253°
2026-05-04 09:28 53.99239 16.39474 32369 ft 400 kts 253°
2026-05-04 09:28 53.98457 16.34940 32800 ft 398 kts 253°
2026-05-04 09:29 53.97678 16.30439 33267 ft 395 kts 253°
2026-05-04 09:29 53.96914 16.26029 33692 ft 393 kts 253°
2026-05-04 09:29 53.96132 16.21524 34066 ft 391 kts 253°
2026-05-04 09:29 53.95371 16.17156 34318 ft 392 kts 252°
2026-05-04 09:30 53.94599 16.12716 34537 ft 393 kts 254°
2026-05-04 09:30 53.94030 16.08157 34779 ft 394 kts 259°
2026-05-04 09:30 53.93606 16.03551 35058 ft 394 kts 259°
2026-05-04 09:30 53.93188 15.98951 35296 ft 395 kts 259°
2026-05-04 09:31 53.92768 15.94345 35514 ft 396 kts 259°
2026-05-04 09:31 53.92342 15.89734 35774 ft 395 kts 259°
2026-05-04 09:31 53.91910 15.85113 36003 ft 396 kts 259°
2026-05-04 09:31 53.91475 15.80495 36209 ft 397 kts 259°
2026-05-04 09:32 53.91034 15.75868 36432 ft 397 kts 259°
2026-05-04 09:32 53.90598 15.71308 36663 ft 397 kts 259°
2026-05-04 09:34 53.87424 15.38723 37950 ft 403 kts 259°
2026-05-04 09:34 53.86957 15.34009 37944 ft 405 kts 259°
2026-05-04 09:34 53.86020 15.24606 37946 ft 403 kts 259°
2026-05-04 09:35 53.85090 15.15346 37944 ft 400 kts 259°
2026-05-04 09:35 53.84152 15.06086 37951 ft 397 kts 258°
2026-05-04 09:37 53.80347 14.69267 37956 ft 399 kts 258°
2026-05-04 09:38 53.79423 14.60498 37956 ft 402 kts 258°
2026-05-04 09:38 53.78432 14.51160 37958 ft 404 kts 258°
2026-05-04 09:39 53.77430 14.41773 37964 ft 407 kts 258°
2026-05-04 09:39 53.76414 14.32340 37957 ft 408 kts 258°
2026-05-04 09:40 53.75861 14.22771 37961 ft 411 kts 268°
2026-05-04 09:40 53.75975 14.13088 37957 ft 412 kts 269°
2026-05-04 09:42 53.76209 13.74502 37956 ft 409 kts 268°
2026-05-04 09:43 53.76229 13.64894 37960 ft 408 kts 268°
2026-05-04 09:43 53.76303 13.55307 37958 ft 407 kts 268°
2026-05-04 09:44 53.76193 13.45744 37954 ft 406 kts 266°
2026-05-04 09:46 53.75719 13.07625 37956 ft 406 kts 266°
2026-05-04 09:46 53.75587 12.98112 37955 ft 407 kts 266°
2026-05-04 09:47 53.75447 12.88516 37955 ft 408 kts 266°
2026-05-04 09:49 53.74831 12.50106 37959 ft 411 kts 266°
2026-05-04 09:51 53.74199 12.16330 37966 ft 412 kts 266°
2026-05-04 09:51 53.74001 12.06653 37961 ft 412 kts 266°
2026-05-04 09:52 53.73794 11.96953 37960 ft 412 kts 266°
2026-05-04 09:52 53.73580 11.87297 37960 ft 412 kts 266°
2026-05-04 09:53 53.73358 11.77617 37958 ft 412 kts 266°
2026-05-04 09:53 53.73129 11.67966 37961 ft 411 kts 266°
2026-05-04 09:54 53.72892 11.58309 37962 ft 411 kts 266°
2026-05-04 09:54 53.72650 11.48722 37962 ft 411 kts 266°
2026-05-04 09:55 53.72323 11.39099 37973 ft 410 kts 264°
2026-05-04 09:55 53.71893 11.29481 37959 ft 410 kts 264°
2026-05-04 09:56 53.71457 11.19925 37972 ft 410 kts 264°
2026-05-04 09:56 53.71022 11.10307 37986 ft 409 kts 264°
2026-05-04 09:57 53.70587 11.00704 37990 ft 409 kts 264°
2026-05-04 09:57 53.70150 10.91187 37990 ft 409 kts 264°
2026-05-04 09:58 53.69702 10.81596 37998 ft 409 kts 264°
2026-05-04 09:58 53.69246 10.72014 37995 ft 409 kts 264°
2026-05-04 10:00 53.67653 10.39710 37994 ft 409 kts 264°
2026-05-04 10:04 53.64167 9.74490 37999 ft 409 kts 264°
2026-05-04 10:04 53.63630 9.64989 37989 ft 409 kts 263°
2026-05-04 10:05 53.63083 9.55469 37988 ft 409 kts 263°
2026-05-04 10:05 53.62527 9.45920 37999 ft 409 kts 263°
2026-05-04 10:06 53.61964 9.36382 37995 ft 409 kts 263°
2026-05-04 10:06 53.61394 9.26854 37998 ft 409 kts 263°
2026-05-04 10:08 53.59341 8.93566 37996 ft 409 kts 263°
2026-05-04 10:08 53.58736 8.84042 38008 ft 409 kts 263°
2026-05-04 10:09 53.58124 8.74518 38000 ft 409 kts 263°
2026-05-04 10:09 53.57525 8.65314 37997 ft 409 kts 263°
2026-05-04 10:10 53.56897 8.55790 38003 ft 409 kts 263°
2026-05-04 10:10 53.56260 8.46238 38003 ft 409 kts 263°
2026-05-04 10:11 53.55618 8.36734 38002 ft 409 kts 263°
2026-05-04 10:11 53.54971 8.27268 38005 ft 409 kts 262°
2026-05-04 10:12 53.54313 8.17751 38007 ft 409 kts 262°
2026-05-04 10:12 53.53646 8.08224 38013 ft 409 kts 262°
2026-05-04 10:13 53.52981 7.98820 38020 ft 408 kts 262°
2026-05-04 10:13 53.52321 7.89601 38017 ft 408 kts 262°
2026-05-04 10:14 53.51635 7.80130 38022 ft 408 kts 262°
2026-05-04 10:16 53.48808 7.42142 38020 ft 407 kts 262°
2026-05-04 10:16 53.48086 7.32709 38025 ft 407 kts 261°
2026-05-04 10:17 53.47357 7.23276 38022 ft 407 kts 261°
2026-05-04 10:19 53.44374 6.85660 38026 ft 407 kts 261°
2026-05-04 10:19 53.43605 6.76210 38009 ft 408 kts 261°
2026-05-04 10:20 53.42834 6.66829 38016 ft 407 kts 260°
2026-05-04 10:20 53.42052 6.57407 38014 ft 407 kts 260°